Atlanta Fulton, GA

1:10 PM EST on December 16, 2017 (GMT -0500)
Fulton County-Brown

Weather History for KFTY - August, 2013

Change the Weather History Date:

Sunday, August 4, 2013

  Actual Average Record
Temperature  
Mean Temperature 81 °F 80 °F  
Max Temperature 89 °F 89 °F 98 °F (2006)
Min Temperature 72 °F 71 °F 60 °F (1998)
Cooling Degree Days 16 15  
Month to date cooling degree days 57 60  
Year to date cooling degree days 992 1069  
Since 1 June cooling degree days 829 869  
Growing Degree Days 32 (Base 50)    
Moisture  
Dew Point 70 °F    
Average Humidity 70    
Maximum Humidity 87    
Minimum Humidity 53    
Precipitation  
Precipitation 0.00 in 0.18 in 1.69 in (1966)
Month to date precipitation 0.14 0.72  
Year to date precipitation 30.12 31.40  
Sea Level Pressure  
Sea Level Pressure 30.01 in    
Wind  
Wind Speed 5 mph (NW)    
Max Wind Speed 14 mph    
Max Gust Speed 20 mph    
Visibility 9 miles    
Events      
T = Trace of Precipitation, MM = Missing Value Source: NWS Daily Summary

Daily Weather History Graph

Daily Weather History Graph

Search for Another Location

Airport or City:

Trip Planner

Search our weather history database for the weather conditions in past years. The results will help you decide how hot, cold, wet, or windy it might be!

Date:

Astronomy

Aug. 04, 2013 Rise Set
Actual Time 6:52 AM EDT 8:35 PM EDT
Civil Twilight 6:25 AM EDT 9:02 PM EDT
Nautical Twilight 5:52 AM EDT 9:35 PM EDT
Astronomical Twilight 5:18 AM EDT 10:09 PM EDT
Moon 4:53 AM EDT (8/4) 6:58 PM EDT (8/4)
Length of Visible Light 14h 37m
Length of Day
13h 43m
Waning Crescent, 5% of the Moon is Illuminated
Aug 4
Waning Crescent
Aug 6
New
Aug 14
First Quarter
Aug 20
Full
Aug 28
Last Quarter

Hourly Weather History & Observations

Time (EDT) Temp. Heat Index Dew Point Humidity Pressure Visibility Wind Dir Wind Speed Gust Speed Precip Events Conditions
12:53 AM 75.0 °F - 72.0 °F 90% 30.03 in 4.0 mi Calm Calm - N/A   Scattered Clouds
1:53 AM 77.0 °F - 71.1 °F 82% 30.01 in 7.0 mi Calm Calm - N/A   Mostly Cloudy
2:53 AM 75.9 °F - 71.1 °F 85% 30.01 in 7.0 mi WNW 3.5 mph - N/A   Scattered Clouds
3:53 AM 75.0 °F - 71.1 °F 87% 30.00 in 7.0 mi SW 4.6 mph - N/A   Clear
4:13 AM 75.2 °F - 71.6 °F 89% 30.04 in 7.0 mi SW 4.6 mph - N/A   Partly Cloudy
4:53 AM 75.0 °F - 71.1 °F 87% 30.00 in 7.0 mi Calm Calm - N/A   Partly Cloudy
5:53 AM 75.0 °F - 71.1 °F 87% 30.00 in 8.0 mi Calm Calm - N/A   Clear
6:53 AM 75.0 °F - 71.1 °F 87% 30.01 in 8.0 mi Calm Calm - N/A   Clear
7:53 AM 75.0 °F - 71.1 °F 87% 30.03 in 7.0 mi Calm Calm - N/A   Mostly Cloudy
8:53 AM 75.9 °F - 71.1 °F 85% 30.03 in 7.0 mi NNW 3.5 mph - N/A   Mostly Cloudy
9:53 AM 79.0 °F - 72.0 °F 79% 30.03 in 9.0 mi NNW 8.1 mph - N/A   Mostly Cloudy
10:53 AM 81.0 °F 84.9 °F 71.1 °F 72% 30.03 in 10.0 mi NNW 8.1 mph - N/A   Partly Cloudy
11:53 AM 82.0 °F 85.9 °F 70.0 °F 67% 30.03 in 10.0 mi WNW 9.2 mph - N/A   Scattered Clouds
12:53 PM 84.0 °F 88.4 °F 70.0 °F 63% 30.02 in 10.0 mi NW 10.4 mph - N/A   Scattered Clouds
1:53 PM 84.9 °F 89.4 °F 70.0 °F 61% 30.01 in 10.0 mi NW 9.2 mph - N/A   Mostly Cloudy
2:53 PM 87.1 °F 92.0 °F 70.0 °F 57% 29.99 in 10.0 mi NW 10.4 mph 18.4 mph N/A   Partly Cloudy
3:53 PM 88.0 °F 91.4 °F 68.0 °F 51% 29.98 in 10.0 mi North 10.4 mph 17.3 mph N/A   Clear
4:53 PM 88.0 °F 92.1 °F 69.1 °F 53% 29.96 in 9.0 mi NNW 8.1 mph - N/A   Partly Cloudy
5:53 PM 87.1 °F 90.6 °F 68.0 °F 53% 29.96 in 9.0 mi NNW 6.9 mph - N/A   Clear
6:53 PM 84.9 °F 88.8 °F 69.1 °F 59% 29.96 in 9.0 mi North 6.9 mph - N/A   Clear
7:53 PM 82.9 °F 85.8 °F 68.0 °F 60% 29.98 in 10.0 mi NNW 5.8 mph - N/A   Clear
8:53 PM 80.1 °F 82.7 °F 68.0 °F 67% 30.00 in 10.0 mi WNW 4.6 mph - N/A   Clear
9:53 PM 79.0 °F - 68.0 °F 69% 29.99 in 10.0 mi Calm Calm - N/A   Clear
10:53 PM 75.0 °F - 68.0 °F 79% 30.01 in 10.0 mi Calm Calm - N/A   Clear
11:53 PM 73.9 °F - 68.0 °F 82% 30.03 in 9.0 mi Calm Calm - N/A   Clear